Location: Molino di Ancona
(43.6167°N, 13.3667°E)
Time: 13:31:48
(UTC+00:00)

Meteor 2-4 Rocket - Pass Details

Date: 15 December 2019
Orbit: 798 x 909 km, 81.2° (Epoch: 16 January)

Event Time Altitude Azimuth Distance (km) Brightness Sun altitude
Exits shadow 05:15:58 - 339° (NNW) 2,859 6.1 -13.3°
Reaches altitude 10° 05:17:10 10° 335° (NNW) 2,420 5.7 -13.1°
Maximum altitude 05:22:09 38° 268° (W) 1,211 4.1 -12.3°
Drops below altitude 10° 05:27:03 10° 202° (SSW) 2,368 6.0 -11.4°
Sets 05:29:32 0° 194° (SSW) 3,290 6.9 -11.0°
